This demonstration page uses our WeatherBlox Daily Observations layout. Learn more.

Left ArrowRight Arrow

Hourly Observations for April 12, 2021

Temp ( °F °C ) Dew Point ( °F °C ) Humidity (%) Winds ( mph kmh ) Pressure ( in mb ) Visibility ( mi km ) Precip ( " mm )
12:53 am 00:53 Cloudy 25 -3.9 22 -5.6 88 88 W 7 11 30.34 1027 10 16 0.00 0.00
1:53 am 01:53 Cloudy 27 -2.8 23 -5 85 85 W 7 11 30.34 1027 10 16 0.00 0.00
2:53 am 02:53 Cloudy 27 -2.8 22 -5.6 81 81 WSW 6 9 30.34 1027 10 16 0.00 0.00
3:53 am 03:53 Cloudy 25 -3.9 21 -6.1 85 85 Calm 30.35 1028 10 16 0.00 0.00
4:53 am 04:53 Cloudy 27 -2.8 23 -5 85 85 Calm 30.35 1028 10 16 0.00 0.00
5:53 am 05:53 Cloudy 28 -2.2 23 -5 81 81 Calm 30.36 1028 10 16 0.00 0.00
6:53 am 06:53 Cloudy 29 -1.7 24 -4.4 82 82 W 7 11 30.38 1029 10 16 0.00 0.00
7:53 am 07:53 Cloudy 31 -0.6 24 -4.4 76 76 NW 8 13 30.39 1029 10 16 0.00 0.00
8:53 am 08:53 Cloudy 35 1.7 25 -3.9 67 67 NNW 10 17 30.41 1030 10 16 0.00 0.00
9:53 am 09:53 Cloudy 37 2.8 21 -6.1 52 52 NNW 15 24 30.42 1030 10 16 0.00 0.00
10:53 am 10:53 Mostly Cloudy 39 3.9 21 -6.1 48 48 NNE 9 15 30.43 1031 10 16 0.00 0.00
11:53 am 11:53 Cloudy 40 4.4 18 -7.8 41 41 N 16 26 30.44 1031 10 16 0.00 0.00
12:53 pm 12:53 Cloudy 41 5 20 -6.7 43 43 NNE 17 28 30.44 1031 10 16 0.00 0.00
1:53 pm 13:53 Cloudy 41 5 20 -6.7 43 43 N 16 26 30.44 1031 10 16 0.00 0.00
2:53 pm 14:53 Cloudy 42 5.6 20 -6.7 41 41 N 17 28 30.44 1031 10 16 0.00 0.00
3:53 pm 15:53 Cloudy 42 5.6 16 -8.9 35 35 NNW 15 24 30.43 1030 10 16 0.00 0.00
4:53 pm 16:53 Cloudy 42 5.6 12 -11.1 29 29 N 18 30 30.42 1030 10 16 0.00 0.00
5:53 pm 17:53 Cloudy 42 5.6 15 -9.4 33 33 N 17 28 30.44 1031 10 16 0.00 0.00
6:53 pm 18:53 Cloudy 40 4.4 15 -9.4 36 36 NNE 22 35 30.46 1032 10 16 0.00 0.00
7:53 pm 19:53 Cloudy 39 3.9 14 -10 36 36 N 16 26 30.48 1032 10 16 0.00 0.00
8:53 pm 20:53 Cloudy 37 2.8 15 -9.4 41 41 NNE 10 17 30.50 1033 10 16 0.00 0.00
9:53 pm 21:53 Cloudy 36 2.2 20 -6.7 52 52 NE 14 22 30.51 1033 10 16 0.00 0.00
10:53 pm 22:53 Cloudy 32 0 25 -3.9 75 75 E 16 26 30.55 1035 8 13 0.00 0.00
11:53 pm 23:53 Cloudy 30 -1.1 24 -4.4 79 79 E 7 11 30.55 1035 10 16 0.00 0.00

Powered by AerisWeather